EW6417 Weather Reports


time (UTC)temp
C
wind
direction
speed
KPH
gust
KPH
rain 1hr
cm
rain 24hr
cm
rain mn
cm
humidity
%
barometer
mb
20260510142520 16 281 1.6 4.8 0.00 0.03 0.00 86 1015.6
20260510142042 16 281 1.6 6.4 0.00 0.03 0.00 85 1015.6
20260510141557 16 281 3.2 6.4 0.00 0.03 0.00 85 1015.7
20260510141020 16 280 1.6 4.8 0.00 0.03 0.00 85 1015.7
20260510140553 16 280 1.6 4.8 0.00 0.03 0.00 84 1015.7
20260510140011 16 279 3.2 8.0 0.00 0.03 0.00 84 1015.6
20260510135535 16 277 1.6 8.0 0.00 0.03 0.00 84 1015.6
20260510135057 16 253 0.0 8.0 0.00 0.03 0.00 84 1015.7
20260510134540 16 247 1.6 8.0 0.00 0.03 0.00 84 1016.0
20260510134053 16 239 1.6 6.4 0.00 0.03 0.00 84 1016.0
20260510133537 16 103 1.6 8.0 0.00 0.03 0.00 83 1015.9
20260510133057 16 100 3.2 8.0 0.00 0.03 0.00 83 1015.7
20260510132516 17 106 0.0 3.2 0.00 0.03 0.00 83 1015.5
20260510132034 16 106 0.0 1.6 0.00 0.03 0.00 82 1015.2
20260510131516 16 106 0.0 1.6 0.00 0.03 0.00 81 1015.0
20260510131037 16 106 0.0 0.0 0.00 0.03 0.00 81 1015.0
20260510130554 16 106 0.0 0.0 0.00 0.03 0.00 81 1014.7
20260510130037 16 106 0.0 0.0 0.00 0.03 0.00 82 1014.7
20260510125558 16 106 0.0 3.2 0.00 0.03 0.00 82 1014.7
20260510125022 16 106 0.0 3.2 0.00 0.03 0.00 82 1014.6
20260510124610 16 106 0.0 0.0 0.00 0.03 0.00 82 1014.6
20260510124017 16 106 0.0 1.6 0.00 0.03 0.00 82 1014.4
20260510123536 16 106 0.0 1.6 0.00 0.03 0.00 82 1014.3
20260510123016 16 106 0.0 0.0 0.00 0.03 0.00 83 1014.2
20260510122537 16 106 0.0 0.0 0.00 0.03 0.00 82 1014.0
20260510122053 16 106 0.0 1.6 0.00 0.03 0.00 81 1013.9
20260510121539 16 106 0.0 3.2 0.00 0.03 0.00 81 1013.8
20260510121054 16 106 0.0 6.4 0.00 0.03 0.00 81 1013.7
20260510120533 16 106 1.6 6.4 0.00 0.03 0.00 80 1013.3
20260510120051 16 106 1.6 4.8 0.00 0.03 0.00 80 1013.3
20260510115513 16 106 0.0 3.2 0.00 0.03 0.00 80 1013.2
20260510115047 16 106 0.0 3.2 0.00 0.03 0.00 80 1013.2
20260510114516 16 106 0.0 3.2 0.00 0.03 0.00 80 1013.2
20260510114053 16 106 0.0 3.2 0.00 0.03 0.00 80 1013.2
20260510113509 16 106 0.0 0.0 0.00 0.03 0.00 79 1013.2
20260510113030 16 106 0.0 0.0 0.00 0.03 0.00 79 1013.1
20260510112507 16 106 0.0 0.0 0.00 0.03 0.00 79 1012.9
20260510112029 16 106 0.0 1.6 0.00 0.03 0.00 79 1012.8
20260510111503 16 106 0.0 6.4 0.00 0.03 0.00 79 1012.6
20260510111023 16 106 0.0 6.4 0.00 0.03 0.00 78 1012.6
20260510110559 16 107 0.0 6.4 0.00 0.03 0.00 78 1012.4
20260510110504 16 107 0.0 6.4 0.00 0.03 0.00 78 1012.4
20260510110043 16 106 0.0 6.4 0.00 0.03 0.00 78 1012.2
20260510105511 16 107 0.0 0.0 0.00 0.03 0.00 78 1011.9
20260510105033 16 107 0.0 0.0 0.00 0.03 0.00 77 1012.0
20260510104556 16 107 0.0 0.0 0.00 0.03 0.00 77 1012.2
20260510104017 16 107 0.0 0.0 0.00 0.03 0.00 77 1012.1
20260510103548 16 107 0.0 0.0 0.00 0.03 0.00 76 1012.1
20260510103012 16 107 0.0 0.0 0.00 0.03 0.00 77 1012.1
20260510102548 16 107 0.0 0.0 0.00 0.03 0.00 77 1012.1
20260510102012 16 107 0.0 0.0 0.00 0.03 0.00 78 1012.0
20260510101537 16 107 0.0 0.0 0.00 0.03 0.00 78 1011.9
20260510101053 16 107 0.0 1.6 0.00 0.03 0.00 79 1011.9
20260510100533 16 107 0.0 1.6 0.00 0.03 0.00 79 1011.9
20260510100055 17 107 0.0 1.6 0.00 0.03 0.00 79 1011.9
20260510095535 17 107 0.0 3.2 0.00 0.03 0.00 78 1012.1
20260510095056 17 107 1.6 6.4 0.00 0.03 0.00 78 1012.2
20260510094517 17 107 0.0 6.4 0.00 0.03 0.00 78 1012.3
20260510094051 17 107 0.0 3.2 0.00 0.03 0.00 77 1012.0
20260510093515 17 107 0.0 6.4 0.00 0.03 0.00 76 1011.9
20260510093053 17 107 1.6 3.2 0.00 0.03 0.00 76 1011.7
20260510092509 17 107 0.0 1.6 0.00 0.03 0.00 75 1011.6
20260510092031 17 107 0.0 0.0 0.00 0.03 0.00 75 1011.5
20260510091506 17 107 0.0 1.6 0.00 0.03 0.00 74 1011.1
20260510091025 17 107 0.0 3.2 0.00 0.03 0.00 74 1011.1
20260510090503 17 107 0.0 3.2 0.00 0.03 0.00 74 1011.0
20260510090026 17 107 0.0 1.6 0.00 0.03 0.00 74 1010.8
20260510085545 17 107 0.0 3.2 0.00 0.03 0.00 74 1010.6
20260510085021 18 107 0.0 3.2 0.00 0.03 0.00 74 1010.5
20260510084543 18 107 0.0 3.2 0.00 0.03 0.00 73 1010.5
20260510084021 18 107 0.0 8.0 0.00 0.03 0.00 72 1010.5
20260510083543 18 107 1.6 8.0 0.00 0.03 0.00 71 1010.4
20260510083024 18 109 1.6 8.0 0.00 0.03 0.00 70 1010.3
20260510082540 18 113 1.6 3.2 0.00 0.03 0.00 70 1010.4
20260510082017 19 114 0.0 0.0 0.00 0.03 0.00 69 1010.5
20260510081542 19 114 0.0 0.0 0.00 0.03 0.00 68 1010.4
20260510081019 19 114 0.0 0.0 0.00 0.03 0.00 66 1010.1
20260510080541 19 114 0.0 0.0 0.00 0.03 0.00 66 1010.1
20260510075539 19 114 0.0 1.6 0.00 0.03 0.00 68 1010.4
20260510075057 19 114 0.0 3.2 0.00 0.05 0.00 66 1010.0
20260510074524 18 114 0.0 3.2 0.00 0.05 0.00 67 1010.0
20260510074101 18 114 0.0 3.2 0.00 0.05 0.00 68 1009.8
20260510074003 18 114 0.0 3.2 0.00 0.05 0.00 69 1009.7
20260510073523 18 114 0.0 3.2 0.00 0.05 0.00 70 1009.9
20260510073109 18 114 0.0 6.4 0.00 0.05 0.00 70 1010.2
20260510073001 18 114 0.0 6.4 0.00 0.05 0.00 69 1010.1
20260510072517 19 115 0.0 1.6 0.00 0.05 0.00 70 1010.1
20260510072039 19 112 0.0 1.6 0.00 0.05 0.00 69 1010.1
20260510071559 19 112 0.0 1.6 0.00 0.05 0.00 69 1010.1
20260510071502 19 112 0.0 1.6 0.00 0.05 0.00 69 1010.0
20260510071041 19 112 0.0 3.2 0.00 0.05 0.00 69 1010.1
20260510070503 19 112 0.0 6.4 0.00 0.05 0.00 69 1010.0
20260510070031 19 112 1.6 4.8 0.00 0.05 0.00 69 1010.0
20260510065559 19 112 1.6 6.4 0.00 0.05 0.00 69 1009.7
20260510065504 19 112 0.0 6.4 0.00 0.05 0.00 69 1009.7
20260510065023 20 112 0.0 6.4 0.00 0.05 0.00 69 1009.7
20260510064558 20 112 0.0 8.0 0.00 0.05 0.00 69 1009.8
20260510064015 20 139 0.0 9.7 0.00 0.05 0.00 69 1009.9
20260510063539 19 141 3.2 11.3 0.00 0.05 0.00 69 1009.8
20260510063015 18 146 4.8 11.3 0.00 0.05 0.00 71 1010.1
20260510062537 18 96 1.6 8.0 0.00 0.05 0.00 75 1010.6
20260510062055 18 91 0.0 3.2 0.00 0.05 0.00 77 1010.8
20260510061536 18 91 0.0 3.2 0.00 0.05 0.00 78 1011.0
20260510061014 18 91 0.0 1.6 0.00 0.05 0.00 78 1011.4
20260510060534 18 91 0.0 1.6 0.00 0.05 0.00 77 1011.6
20260510060048 18 91 0.0 1.6 0.00 0.05 0.00 77 1011.9
20260510055535 18 91 0.0 1.6 0.00 0.05 0.00 76 1011.9
20260510055047 18 91 0.0 6.4 0.00 0.05 0.00 76 1012.0
20260510054513 18 91 1.6 4.8 0.00 0.05 0.00 75 1012.1
20260510054049 18 91 0.0 0.0 0.00 0.05 0.00 75 1012.1
20260510053514 18 91 0.0 0.0 0.00 0.05 0.00 75 1012.2
20260510053049 18 91 0.0 0.0 0.00 0.05 0.00 74 1012.2
20260510052507 18 91 0.0 0.0 0.00 0.05 0.00 72 1012.0
20260510052027 18 91 0.0 0.0 0.00 0.05 0.00 72 1012.1
20260510051559 18 91 0.0 0.0 0.00 0.05 0.00 73 1012.2
20260510051042 18 91 0.0 0.0 0.00 0.05 0.00 73 1012.1
20260510050519 19 91 0.0 0.0 0.00 0.05 0.00 72 1012.1
20260510050056 19 91 0.0 0.0 0.00 0.05 0.00 72 1012.1
20260510045519 19 91 0.0 1.6 0.00 0.05 0.00 72 1012.2
20260510045050 19 91 0.0 1.6 0.00 0.05 0.05 70 1012.1
20260510044516 20 91 0.0 1.6 0.00 0.05 0.05 69 1012.1
20260510044034 20 91 0.0 1.6 0.00 0.05 0.05 67 1012.1
20260510043555 20 91 0.0 1.6 0.00 0.05 0.05 67 1011.9
20260510043034 20 91 0.0 1.6 0.00 0.05 0.05 67 1011.6
20260510042550 20 91 0.0 3.2 0.00 0.05 0.05 65 1011.3
20260510042031 20 91 0.0 6.4 0.00 0.05 0.05 65 1011.1
20260510041551 20 91 0.0 6.4 0.00 0.05 0.05 65 1010.9
20260510041015 20 91 0.0 8.0 0.00 0.05 0.05 65 1010.7
20260510040548 20 91 1.6 8.0 0.00 0.05 0.05 66 1010.6
20260510040025 20 92 1.6 6.4 0.00 0.05 0.05 67 1010.6
20260510035547 20 92 0.0 4.8 0.00 0.05 0.05 68 1010.7
20260510035011 20 92 1.6 4.8 0.00 0.05 0.05 68 1010.7
20260510034549 20 92 0.0 1.6 0.00 0.05 0.05 66 1010.7
20260510034006 20 92 0.0 0.0 0.00 0.05 0.05 65 1010.5
20260510033528 20 92 0.0 0.0 0.00 0.05 0.05 64 1010.5
20260510033005 20 92 0.0 0.0 0.00 0.05 0.05 64 1010.4
20260510032533 20 92 0.0 0.0 0.00 0.05 0.05 64 1010.5
20260510032047 20 92 0.0 0.0 0.00 0.05 0.05 65 1010.6
20260510031531 20 92 0.0 0.0 0.00 0.05 0.05 65 1010.7
20260510031048 21 92 0.0 0.0 0.00 0.05 0.05 65 1010.8
20260510030513 21 92 0.0 0.0 0.00 0.05 0.05 63 1010.8
20260510030051 21 92 0.0 0.0 0.00 0.05 0.05 62 1010.7
20260510025515 21 92 0.0 0.0 0.00 0.05 0.05 61 1010.6
20260510025037 21 92 0.0 0.0 0.00 0.05 0.05 61 1010.4
20260510024514 21 92 0.0 0.0 0.00 0.05 0.05 61 1010.2
20260510024055 21 92 0.0 0.0 0.00 0.05 0.05 60 1010.0
20260510023537 21 92 0.0 0.0 0.00 0.05 0.05 59 1009.7
20260510023055 22 92 0.0 0.0 0.00 0.05 0.05 59 1009.4
20260510022539 22 92 0.0 0.0 0.00 0.05 0.05 58 1009.3
20260510022055 22 92 0.0 3.2 0.00 0.05 0.05 58 1009.2
20260510021524 22 92 0.0 3.2 0.00 0.05 0.05 57 1009.1
20260510021037 22 92 0.0 0.0 0.00 0.05 0.05 56 1009.0
20260510020517 22 92 0.0 0.0 0.00 0.05 0.05 56 1009.0
20260510020055 22 92 0.0 0.0 0.00 0.05 0.05 55 1008.9
20260510015510 22 92 0.0 0.0 0.00 0.05 0.05 54 1008.7
20260510015029 23 92 0.0 0.0 0.00 0.05 0.05 52 1008.7
20260510014508 23 92 0.0 0.0 0.00 0.05 0.05 52 1008.5
20260510014027 23 92 0.0 0.0 0.00 0.05 0.05 51 1008.4
20260510013549 23 92 0.0 0.0 0.00 0.05 0.05 51 1008.4
20260510013032 24 92 0.0 0.0 0.00 0.05 0.05 49 1008.3
20260510012549 24 92 0.0 0.0 0.00 0.05 0.05 49 1008.3
20260510012011 25 92 0.0 0.0 0.00 0.05 0.05 48 1008.1
20260510011549 25 92 0.0 0.0 0.00 0.05 0.05 47 1008.0
20260510011011 25 92 0.0 0.0 0.00 0.05 0.05 46 1007.9
20260510010530 25 92 0.0 3.2 0.00 0.05 0.05 45 1007.9
20260510010009 26 92 0.0 3.2 0.00 0.05 0.05 45 1007.8
20260510005531 26 92 0.0 1.6 0.00 0.05 0.05 44 1007.7
20260510005051 26 92 0.0 6.4 0.00 0.18 0.05 43 1007.7
20260510004535 26 92 0.0 6.4 0.00 0.18 0.05 43 1007.6
20260510004055 27 92 0.0 6.4 0.00 0.18 0.05 43 1007.6
20260510003517 27 91 0.0 4.8 0.00 0.18 0.05 43 1007.6
20260510003050 27 87 0.0 3.2 0.00 0.18 0.05 43 1007.6
20260510002517 27 87 0.0 3.2 0.00 0.18 0.05 43 1007.6
20260510002036 27 87 0.0 6.4 0.00 0.18 0.05 42 1007.5
20260510001555 27 79 0.0 6.4 0.00 0.18 0.05 41 1007.5
20260510001038 27 75 0.0 3.2 0.00 0.18 0.05 41 1007.6
20260510000553 27 75 0.0 8.0 0.00 0.18 0.05 41 1007.6
20260510000017 28 72 0.0 8.0 0.00 0.18 0.05 40 1007.6
20260509235553 28 186 0.0 6.4 0.00 0.18 0.05 39 1007.7
20260509235017 28 186 0.0 6.4 0.00 0.91 0.05 38 1007.7
20260509234611 28 186 1.6 6.4 0.00 0.91 0.05 38 1007.7
20260509234017 28 191 0.0 3.2 0.00 0.91 0.05 39 1007.7
20260509233601 28 191 0.0 3.2 0.00 0.91 0.05 37 1007.7
20260509233018 28 191 0.0 8.0 0.00 0.91 0.05 36 1007.8
20260509232559 28 191 0.0 8.0 0.00 0.91 0.05 37 1007.7
20260509232503 28 191 0.0 8.0 0.00 0.91 0.05 36 1007.7
20260509232022 28 127 1.6 4.8 0.00 0.91 0.05 36 1007.8
20260509231538 28 116 1.6 6.4 0.00 0.91 0.05 33 1007.8
20260509231014 28 101 0.0 6.4 0.00 0.91 0.05 32 1007.8
20260509230535 28 128 0.0 6.4 0.00 0.91 0.05 32 1007.8
20260509230056 28 125 0.0 8.0 0.00 0.91 0.05 32 1007.8
20260509225537 28 142 0.0 11.3 0.00 0.91 0.05 31 1007.9
20260509225054 28 187 0.0 11.3 0.00 0.91 0.05 34 1007.9
20260509224549 28 167 1.6 9.7 0.00 0.91 0.05 34 1007.9
20260509224102 28 152 3.2 9.7 0.00 0.91 0.05 34 1008.0
20260509224002 28 152 3.2 9.7 0.00 0.91 0.05 33 1008.0
20260509223545 28 160 1.6 8.0 0.00 0.91 0.05 33 1008.0
20260509223005 29 193 0.0 9.7 0.00 0.91 0.05 31 1008.0
20260509222526 29 194 0.0 9.7 0.00 0.91 0.05 33 1008.1
20260509222006 29 189 3.2 9.7 0.00 0.91 0.05 32 1008.1
20260509221541 29 180 4.8 8.0 0.00 0.91 0.05 32 1008.2
20260509221021 28 139 0.0 3.2 0.00 0.91 0.05 32 1008.2
20260509220600 29 139 0.0 8.0 0.00 0.91 0.05 31 1008.2
20260509220505 29 139 0.0 8.0 0.00 0.91 0.05 31 1008.2
20260509220018 29 139 0.0 8.0 0.00 0.91 0.05 34 1008.2
20260509215539 29 148 1.6 8.0 0.00 0.91 0.05 34 1008.2
20260509215019 29 150 1.6 11.3 0.00 0.91 0.05 34 1008.2
20260509214542 29 155 4.8 11.3 0.00 0.91 0.05 34 1008.2
20260509214101 29 164 3.2 11.3 0.00 0.91 0.05 34 1008.2
20260509213539 29 125 0.0 3.2 0.00 0.91 0.05 33 1008.3
20260509213057 29 126 0.0 4.8 0.00 0.91 0.05 33 1008.4
20260509212534 28 125 1.6 6.4 0.00 0.91 0.05 33 1008.5
20260509212010 28 125 1.6 6.4 0.00 0.91 0.05 33 1008.6
20260509211531 28 123 0.0 6.4 0.00 0.91 0.05 31 1008.6
20260509211049 28 126 0.0 8.0 0.00 0.91 0.05 31 1008.7
20260509210525 29 149 0.0 9.7 0.00 0.91 0.05 32 1008.8
20260509210054 29 193 1.6 9.7 0.00 0.91 0.05 33 1008.9
20260509205522 28 199 0.0 8.0 0.00 0.91 0.05 36 1008.8
20260509205039 28 203 1.6 8.0 0.00 0.91 0.05 34 1008.9
20260509204606 28 194 0.0 11.3 0.00 0.91 0.05 33 1008.9
20260509204038 28 193 8.0 11.3 0.00 0.91 0.05 33 1008.9
20260509203555 28 131 0.0 6.4 0.00 0.91 0.05 32 1009.0
20260509203051 28 130 1.6 8.0 0.00 0.91 0.05 33 1009.1
20260509202552 28 135 3.2 8.0 0.00 0.91 0.05 35 1009.1
20260509202013 28 83 0.0 3.2 0.00 0.91 0.05 36 1009.2
20260509201531 28 82 0.0 6.4 0.00 0.91 0.05 37 1009.3
20260509201012 28 81 0.0 8.0 0.00 0.91 0.05 36 1009.3
20260509200532 28 114 1.6 6.4 0.00 0.91 0.05 30 1009.4
20260509200010 28 120 0.0 8.0 0.00 0.91 0.05 31 1009.5
20260509195534 28 127 0.0 8.0 0.00 0.91 0.05 32 1009.6
20260509195052 28 164 0.0 8.0 0.00 0.91 0.05 33 1009.6
20260509194533 28 165 1.6 8.0 0.00 0.91 0.05 35 1009.6
20260509194058 28 163 1.6 8.0 0.00 0.91 0.05 35 1009.7
20260509193534 28 156 1.6 9.7 0.00 0.91 0.05 38 1009.7
20260509193016 27 208 1.6 11.3 0.00 0.91 0.05 36 1009.7
20260509192548 27 177 3.2 11.3 0.00 0.91 0.05 38 1009.6
20260509192025 27 133 1.6 9.7 0.00 0.91 0.05 36 1009.6
20260509191503 27 155 1.6 9.7 0.00 0.91 0.05 41 1009.6
20260509191038 27 188 1.6 9.7 0.00 0.91 0.05 44 1009.6
20260509190552 27 184 1.6 14.5 0.00 0.91 0.05 44 1009.6
20260509190034 26 200 6.4 14.5 0.00 0.91 0.05 41 1009.6
20260509185552 26 192 6.4 12.9 0.00 0.91 0.05 41 1009.8
20260509185018 26 205 8.0 12.9 0.00 0.91 0.05 45 1009.8
20260509184552 27 214 6.4 12.9 0.00 0.91 0.05 45 1009.9
20260509184016 26 171 1.6 8.0 0.00 0.91 0.05 44 1009.9
20260509183551 26 211 0.0 11.3 0.00 0.91 0.05 47 1010.0
20260509183011 26 194 3.2 11.3 0.00 0.91 0.05 47 1010.1
20260509182530 26 193 3.2 12.9 0.00 0.91 0.05 46 1010.1
20260509182008 26 190 3.2 12.9 0.00 0.91 0.05 49 1010.2
20260509181526 26 237 0.0 11.3 0.00 0.91 0.05 50 1010.2
20260509181007 25 229 3.2 11.3 0.00 0.91 0.05 52 1010.3
20260509180526 25 191 1.6 11.3 0.00 0.91 0.05 53 1010.3
20260509180116 25 200 0.0 11.3 0.00 0.91 0.05 55 1010.4
20260509180002 25 200 3.2 11.3 0.00 0.91 0.05 55 1010.4
20260509175522 25 200 3.2 11.3 0.00 0.91 0.05 57 1010.3
20260509175044 25 226 4.8 11.3 0.00 0.91 0.05 60 1010.3
20260509174527 25 141 1.6 9.7 0.00 0.91 0.05 60 1010.3
20260509174044 24 186 1.6 8.0 0.00 0.91 0.05 64 1010.3
20260509173521 24 186 0.0 12.9 0.00 0.91 0.05 64 1010.4
20260509173049 23 185 0.0 12.9 0.00 0.91 0.05 65 1010.5
20260509172559 23 188 6.4 12.9 0.00 0.91 0.05 65 1010.6
20260509172040 23 196 3.2 11.3 0.00 0.91 0.05 68 1010.6
20260509171557 23 197 1.6 11.3 0.00 0.91 0.05 67 1010.6
20260509171022 23 199 3.2 9.7 0.00 0.91 0.05 66 1010.7
20260509170554 22 200 6.4 12.9 0.00 0.91 0.05 69 1010.7
20260509170033 22 194 8.0 12.9 0.00 0.91 0.05 70 1010.7
20260509165552 22 206 1.6 12.9 0.00 0.91 0.05 75 1010.8
20260509165014 22 199 3.2 12.9 0.00 0.91 0.05 73 1010.9
20260509164548 22 204 1.6 12.9 0.00 0.91 0.05 78 1010.9
20260509164012 21 206 3.2 12.9 0.00 0.91 0.05 77 1010.9
20260509163549 21 200 3.2 11.3 0.00 0.91 0.05 80 1010.9
20260509163010 21 205 1.6 11.3 0.00 0.91 0.05 80 1010.9
20260509162532 21 213 6.4 11.3 0.00 0.91 0.05 79 1010.9
20260509162008 21 212 6.4 9.7 0.00 0.91 0.05 81 1010.7
20260509161527 21 202 0.0 9.7 0.00 0.91 0.05 84 1010.7
20260509161100 20 203 0.0 9.7 0.00 0.91 0.05 84 1010.6
20260509161002 20 205 1.6 9.7 0.00 0.91 0.05 85 1010.7
20260509160524 20 214 3.2 8.0 0.00 0.91 0.05 86 1010.7
20260509160059 20 216 3.2 8.0 0.00 0.91 0.05 87 1010.6
20260509155538 19 200 0.0 8.0 0.00 0.91 0.05 90 1010.6
20260509155055 18 200 3.2 11.3 0.00 0.91 0.05 89 1010.6
20260509154536 18 200 1.6 11.3 0.00 0.91 0.05 92 1010.6
20260509154051 18 195 4.8 11.3 0.00 0.91 0.05 93 1010.6
20260509153538 17 218 3.2 9.7 0.00 0.91 0.05 93 1010.7
20260509153108 17 195 1.6 9.7 0.00 0.91 0.05 94 1010.7
20260509152516 17 206 1.6 8.0 0.00 0.91 0.05 95 1010.7
20260509152055 17 206 1.6 8.0 0.03 0.91 0.05 95 1010.8
20260509151516 17 206 3.2 8.0 0.03 0.91 0.05 95 1010.7
20260509151052 16 207 1.6 9.7 0.03 0.91 0.05 95 1010.7
20260509150522 16 208 4.8 9.7 0.03 0.91 0.05 95 1010.7
20260509150054 16 210 0.0 9.7 0.03 0.91 0.05 95 1010.7
20260509145518 16 210 4.8 11.3 0.03 0.91 0.05 95 1010.8
20260509145054 16 191 4.8 11.3 0.03 0.91 0.05 95 1010.9
20260509144536 16 210 3.2 8.0 0.03 0.91 0.05 95 1010.9
20260509144013 16 208 3.2 8.0 0.03 0.91 0.05 95 1010.8
20260509143551 16 208 3.2 8.0 0.03 0.91 0.05 95 1010.8
20260509143030 15 195 1.6 8.0 0.03 0.91 0.05 95 1010.7